Regional Weather Roundup
Issued by NWS

Home | Current Version | Previous Version | Graphics & Text | Print | Product List | Glossary Off
Versions: 1 2 3 4 5 6 7 8 9 10 11 12 13 14 15 16 17 18 19 20 21 22 23 24 25 26 27 28 29 30 31 32 33 34 35 36 37 38 39 40 41 42 43 44 45 46 47 48 49 50

624
ASUS43 KLSX 141610
RWRMO

WEATHER SUMMARY FOR MISSOURI
NATIONAL WEATHER SERVICE SPRINGFIELD MO
1000 AM CST SUN FEB 14 2016

NOTE: "FAIR" INDICATES FEW OR NO CLOUDS BELOW 12,000 FEET WITH NO
       SIGNIFICANT WEATHER AND/OR OBSTRUCTIONS TO VISIBILITY.
       CURRENT SKY AND/OR WEATHER CONDITIONS ARE NOT AVAILABLE FOR
       CHILLICOTHE AND FARMINGTON.

MOZ001>031-035>038-043-044-053-054-141700-
...NORTHERN AND WESTERN MISSOURI...

CITY           SKY/WX    TMP DP  RH WIND       PRES   REMARKS
KANSAS CTY INT PTSUNNY   32  19  58 S13       29.95F WCI  22
KANSAS C DTWN  CLOUDY    33  20  58 S8        29.98F WCI  26
LEE`S SUMMIT   SUNNY     31  23  72 S10       29.96F WCI  22
ST JOSEPH      CLOUDY    30  15  53 S13       29.96F WCI  20
CHILLICOTHE      N/A     26  19  74 S12G22    30.00F WCI  16
KIRKSVILLE     CLOUDY    21  16  81 S21       30.01F WCI   5

$$
MOZ066>068-077>081-088>096-101>105-141700-
...SOUTHWEST MISSOURI...

CITY           SKY/WX    TMP DP  RH WIND       PRES   REMARKS
SPRINGFIELD    CLOUDY    25  21  85 SE16      30.01F WCI  12
JOPLIN         CLOUDY    33  28  81 SE9       30.00F WCI  25

$$
MOZ032>034-039>042-045>050-055>058-069>072-141700-
...CENTRAL MISSOURI...

CITY           SKY/WX    TMP DP  RH WIND       PRES   REMARKS
COLUMBIA       CLOUDY    22  20  92 SE13      30.04F WCI  10
JEFFERSON CITY CLOUDY    23  21  92 SE10      30.08F WCI  12
ROLLA          FRZ RAIN  24  21  88 S15       30.03F FOG     WCI  11
SEDALIA        CLOUDY    29  24  82 S17       30.02F WCI  17
WHITEMAN AFB   CLOUDY    29  26  88 S9        29.99F WCI  21
WARRENSBURG    CLOUDY    32  27  80 S10       30.00F WCI  24
OSAGE BEACH    CLOUDY    27  19  74 CALM      30.05F

$$
MOZ051-052-059>065-141700-
...EAST CENTRAL MISSOURI...

CITY           SKY/WX    TMP DP  RH WIND       PRES   REMARKS
ST LOUIS INTL  SNOW      23  18  81 SE8       30.16S VSB 1/2 WCI  14
SPIRIT OF STL  LGT SNOW  21  18  86 SE7       30.14F FOG     WCI  13
ST CHARLES     SNOW      21  19  92 SE15      30.15F VSB 1/4 WCI   8

$$
MOZ072>076-082>087-097>100-106>115-141700-
...SOUTH CENTRAL AND SOUTHEAST MISSOURI...

CITY           SKY/WX    TMP DP  RH WIND       PRES   REMARKS
CAPE GIRARDEAU FRZ RAIN  24  22  91 SE15      30.18S FOG     WCI  11
FARMINGTON     MIX PCPN  21  19  92 SE10      30.13S FOG     WCI  10
POPLAR BLUFF   MIX PCPN  27  21  78 E8        30.16F WCI  19
WEST PLAINS    CLOUDY    25  21  85 SE10      30.08F FOG     WCI  15

$$




USA.gov is the U.S. government's official web portal to all federal, state and local government web resources and services.